Theta_e
338 337 336 337 337 337 337 339 342 341 342 343 344 343 343 350 354 356 356 360 361 361 362 365 364 364 363 361 362 364 363 364 366 360 364 364 363 363 362 358 360 364 361 361 362 370 367 367 367 363 368 368 368 372 373 374 374 364 372 378 372 375 376
341 337 336 336 337 338 338 341 343 342 343 344 343 349 343 345 351 352 356 359 359 360 361 362 364 363 363 363 361 365 364 364 364 366 363 367 368 368 364 364 364 365 368 364 371 366 367 363 364 365 367 367 366 372 368 371 372 372 370 371 374 374 374
341 341 339 336 337 337 342 340 341 342 344 343 343 345 343 351 351 355 357 356 359 360 360 360 363 362 363 364 363 363 361 361 362 360 358 357 357 358 361 365 363 360 360 365 366 362 362 361 368 370 367 365 362 372 372 370 371 368 368 371 370 369 373
341 340 341 339 339 342 345 343 342 343 343 344 343 346 346 353 349 357 355 355 356 358 358 358 359 359 360 362 361 362 361 362 361 358 357 357 358 357 360 362 365 362 364 360 360 359 364 363 361 368 367 368 369 366 368 367 365 367 369 373 369 366 373
341 341 343 344 340 340 344 343 343 345 346 344 346 350 348 348 349 351 352 354 354 356 357 357 357 358 360 360 358 359 359 358 359 359 358 359 362 361 358 356 358 358 361 358 367 366 364 369 361 364 365 371 366 370 367 367 365 369 370 370 370 368 368
341 343 342 344 342 339 341 346 344 347 347 348 350 351 352 349 349 348 352 355 352 353 355 355 354 356 356 357 356 357 359 361 363 363 360 359 361 357 356 357 356 357 359 358 360 358 362 363 363 361 360 359 360 361 362 364 362 367 369 370 369 366 362
340 342 343 343 344 343 342 343 343 345 348 352 353 354 354 351 353 352 351 352 351 352 350 351 352 352 355 356 356 357 357 357 358 357 357 355 356 356 356 357 360 357 357 361 359 358 360 362 362 364 361 358 360 357 363 368 365 363 368 370 370 373 370
340 340 343 346 344 345 341 343 343 341 345 352 352 352 353 353 355 355 355 353 353 354 352 349 348 352 354 357 354 352 354 355 356 357 358 356 354 355 354 355 358 360 360 355 358 359 356 360 357 360 361 359 360 362 362 367 372 361 364 367 368 365 363
336 342 343 342 342 345 345 345 345 344 348 352 353 351 353 355 354 354 355 358 357 357 358 347 347 352 358 356 356 355 352 353 355 356 356 354 354 353 353 355 356 358 357 355 356 360 360 359 358 363 364 362 366 369 365 368 365 364 366 369 368 366 361
339 340 342 343 344 346 353 345 349 347 347 351 355 352 351 353 359 359 357 362 357 357 354 352 359 361 358 358 356 352 352 354 353 352 353 352 352 352 353 353 354 357 355 355 355 355 358 359 359 364 367 362 366 366 365 364 367 364 363 367 366 367 370
344 343 346 345 345 350 353 348 352 358 350 351 354 354 357 359 361 359 359 358 353 355 351 353 363 362 356 356 360 359 357 353 350 350 351 350 350 350 351 351 352 355 356 355 353 354 356 361 364 370 368 358 360 364 367 364 366 366 360 362 363 366 364
342 345 346 347 348 347 349 355 359 359 355 353 355 358 358 361 363 362 362 360 362 355 358 361 362 355 352 357 358 361 360 359 353 350 350 350 349 349 349 350 351 352 355 355 355 356 355 359 359 358 363 365 362 361 367 368 367 368 366 360 360 361 360
344 345 346 345 347 347 351 353 354 357 358 355 357 360 361 362 364 366 366 366 367 367 363 360 360 362 360 358 359 360 357 352 356 351 349 351 352 350 351 349 350 351 352 355 357 356 354 353 358 361 362 366 363 358 363 366 362 368 369 365 365 365 364
343 343 345 347 347 346 349 351 354 356 356 356 357 358 359 362 363 364 364 364 366 367 365 365 367 366 365 367 362 360 354 353 356 356 358 360 366 361 351 351 349 352 356 357 355 353 353 353 352 355 356 359 362 365 363 364 362 366 368 366 363 360 360
336 338 341 344 347 349 346 347 349 354 354 356 357 355 356 357 358 362 363 364 365 366 365 367 366 365 364 363 361 365 365 367 360 363 367 369 371 367 363 355 354 358 357 356 354 351 352 353 354 354 355 357 360 360 358 355 356 358 360 361 363 361 358
335 337 339 341 339 341 342 343 345 345 349 354 355 354 354 356 358 359 358 360 362 364 364 367 366 365 365 364 362 363 360 363 359 360 359 361 364 367 364 356 359 353 354 354 352 354 357 357 358 353 354 356 356 357 355 354 351 361 364 364 362 362 359
335 336 336 337 336 339 340 343 343 342 341 351 354 354 354 355 356 358 358 359 360 361 362 363 363 364 364 363 364 366 364 363 358 357 356 359 357 358 364 367 364 359 361 363 361 360 367 363 357 354 353 353 353 354 353 352 352 357 343 348 357 361 362
334 334 335 337 337 339 342 343 341 342 345 348 350 348 347 346 355 356 356 358 359 359 360 360 359 359 361 361 361 363 363 363 357 355 354 353 352 355 356 357 357 359 361 359 356 364 360 355 357 363 355 354 352 351 352 352 354 334 337 343 345 359 360
335 335 335 337 337 338 341 342 342 343 345 342 341 341 346 352 353 351 354 355 357 359 357 357 357 356 356 356 356 358 359 357 355 354 353 353 351 351 351 352 353 354 353 355 354 352 353 355 356 359 360 359 360 353 352 350 340 330 333 337 341 347 362
335 335 335 335 336 336 338 341 340 341 342 341 344 346 348 347 346 348 349 350 351 352 352 351 349 349 349 352 353 354 354 355 355 353 351 351 352 352 352 354 357 357 356 360 359 355 356 351 348 351 353 355 355 360 349 346 334 329 330 331 333 339 352
335 334 336 336 337 338 339 339 341 342 341 342 344 345 343 342 343 345 347 347 343 343 343 345 345 344 345 346 348 349 349 352 354 353 350 350 352 352 353 356 357 357 358 355 354 356 351 350 351 351 354 354 353 352 348 337 324 326 328 327 329 332 353
334 334 333 335 335 336 337 339 339 339 340 345 345 344 344 343 344 340 341 342 340 339 340 341 342 342 343 344 344 344 345 347 346 347 349 350 349 347 349 354 356 355 355 354 356 353 352 351 350 350 351 353 352 352 350 334 320 323 324 325 328 335 353
332 331 332 332 334 334 337 339 339 340 341 341 342 340 341 343 341 339 338 337 338 338 337 338 338 339 340 342 341 342 343 344 343 343 344 345 347 347 349 351 353 353 353 354 353 351 348 347 347 351 352 353 353 353 349 336 322 318 318 321 324 342 356
326 328 331 331 333 334 335 335 336 336 335 336 337 338 340 340 338 336 336 334 334 334 334 334 334 336 338 338 339 339 339 341 341 340 340 342 342 343 345 348 348 348 350 352 349 349 351 351 350 351 353 352 352 353 341 330 321 315 315 317 320 336 352
322 321 321 323 328 327 327 329 332 332 333 333 333 336 337 336 337 335 334 334 333 333 332 331 331 332 332 332 334 336 338 339 339 338 339 339 340 341 340 341 344 348 349 351 350 349 350 350 348 347 349 350 352 348 338 331 325 314 313 315 317 334 353
319 320 320 320 319 319 322 327 323 322 322 324 327 329 331 330 329 330 331 331 331 330 329 330 331 332 332 333 334 335 337 338 339 339 338 337 337 336 337 340 340 343 346 348 348 349 349 349 348 346 347 348 348 340 334 330 328 322 311 312 315 323 352
321 321 320 319 318 324 319 321 321 320 319 321 322 323 326 326 325 325 327 327 327 327 328 330 331 333 336 337 333 333 333 334 337 336 337 336 337 337 339 338 339 341 344 343 345 346 346 344 344 344 344 342 339 340 337 334 330 326 312 310 311 315 330
321 322 325 327 327 323 322 321 321 322 322 324 324 324 324 325 325 326 325 323 321 323 327 329 329 330 331 331 328 328 330 332 335 336 335 339 342 340 340 342 343 343 344 344 342 340 340 341 342 341 338 338 337 334 335 335 334 332 320 314 311 310 315
325 324 323 323 322 324 324 321 320 319 319 321 323 324 325 326 325 324 324 323 325 325 327 327 328 329 330 330 329 329 329 330 330 333 334 335 339 339 338 340 341 343 344 342 340 338 337 338 337 336 335 334 334 333 331 330 330 328 329 319 313 311 313
324 323 323 323 323 322 323 322 321 320 321 323 323 322 323 323 322 323 323 323 326 327 327 327 329 330 327 329 326 324 325 326 327 329 332 334 338 338 338 339 341 343 344 343 341 338 338 338 337 336 335 332 331 329 330 329 330 328 328 325 319 315 312
322 322 320 317 320 323 322 321 320 319 321 323 324 324 325 322 321 322 320 323 327 328 327 326 326 328 327 328 328 327 323 323 327 327 328 329 329 334 337 335 337 338 340 341 338 339 337 338 337 337 336 334 332 331 331 330 328 328 328 329 327 319 316
320 321 319 319 320 322 322 322 322 320 318 319 321 320 324 321 320 324 324 326 326 326 328 327 325 327 328 327 325 325 327 325 319 321 327 329 329 331 331 330 332 334 338 336 334 336 336 336 337 335 335 333 333 334 333 334 332 331 331 332 334 331 321
320 319 319 319 322 323 321 320 318 317 318 320 322 321 318 316 315 318 322 325 325 324 327 329 330 328 327 326 324 326 321 321 324 323 324 326 325 328 330 340 334 330 330 325 324 328 331 332 331 330 328 330 330 332 333 328 325 326 328 329 330 332 334
321 321 322 323 324 322 319 318 316 315 316 317 317 317 319 318 315 315 318 318 324 327 328 327 327 327 325 320 321 327 323 321 327 328 319 319 322 320 320 326 328 324 320 318 319 319 322 328 330 326 327 329 328 329 327 323 321 320 319 320 318 320 326
324 325 325 323 323 323 321 319 318 318 317 316 316 317 318 319 318 319 320 314 319 324 326 326 328 325 322 324 324 323 328 323 322 325 326 324 323 322 321 321 323 326 324 321 320 318 316 320 320 321 323 327 324 325 324 322 319 318 307 310 303 307 313
326 325 326 326 325 324 323 322 321 319 318 318 320 319 318 317 319 320 319 321 322 323 325 322 326 323 321 323 321 323 325 325 324 327 325 325 326 323 320 319 308 314 322 319 316 307 305 311 318 319 324 325 320 321 319 317 316 304 298 297 296 296 297
326 326 326 325 325 325 326 325 323 322 320 321 322 320 320 320 318 321 321 322 323 324 325 328 329 328 325 321 321 323 323 321 322 323 328 325 325 326 326 321 320 301 300 313 314 302 295 295 296 302 309 325 320 312 306 306 300 297 296 297 296 296 295
326 325 325 324 324 323 322 322 322 321 321 322 321 320 322 319 320 322 322 324 324 325 326 326 326 324 324 323 323 325 326 324 323 323 325 327 329 328 327 326 320 319 303 296 302 300 296 295 294 294 298 302 313 326 318 304 297 295 297 297 297 296 295
Wind_Speed
13 15 15 13 12 14 14 13 12 12 11 11 11 14 13 15 13 12 13 12 12 11 11 11 10 9 10 8 8 7 7 6 5 6 6 5 5 6 6 7 6 4 4 4 4 2 5 4 3 5 3 5 5 4 3 3 3 3 3 2 3 2 0
9 9 12 14 13 13 14 13 11 11 12 11 11 10 11 14 14 13 11 12 12 12 12 11 10 9 10 8 8 8 7 8 7 5 6 5 4 5 5 5 4 5 4 4 3 4 4 7 5 6 4 4 5 4 5 4 3 3 2 1 2 2 2
5 4 7 11 11 11 12 14 13 11 12 13 13 12 11 9 14 12 13 13 13 13 12 13 11 11 9 8 8 8 8 8 8 8 8 8 8 8 7 5 5 5 6 4 4 4 5 5 5 4 6 5 6 5 3 4 4 4 5 3 3 4 3
7 8 7 9 10 10 10 12 14 12 13 14 14 14 12 10 13 12 13 14 14 14 13 13 13 12 11 9 9 9 9 8 8 9 9 8 9 7 6 6 4 6 5 7 7 5 3 5 5 4 5 4 4 5 5 5 5 4 5 5 4 3 3
10 9 8 8 10 11 9 11 12 10 12 15 13 12 12 12 13 13 13 14 14 15 15 14 12 12 10 11 10 9 10 11 9 9 8 5 5 5 6 8 7 6 5 6 3 4 3 2 6 5 5 4 4 4 4 4 5 4 4 4 3 3 3
10 11 11 8 7 13 11 10 11 11 12 11 11 11 10 12 12 14 12 12 13 14 14 13 13 12 11 12 10 10 10 9 7 6 6 6 6 7 7 8 8 8 8 7 6 5 5 5 6 5 7 7 7 7 7 6 5 6 4 3 4 3 4
13 11 9 8 6 7 13 11 10 12 11 8 9 9 9 11 9 10 11 11 12 13 14 14 13 13 10 10 10 10 11 11 10 10 9 10 9 9 8 7 6 6 5 4 6 7 8 6 5 5 5 7 7 8 6 5 5 5 5 4 4 3 2
15 13 10 4 5 5 12 10 12 13 10 7 9 10 9 8 7 9 9 10 9 10 10 12 13 10 9 8 10 11 12 12 11 10 9 10 9 9 9 8 7 7 5 8 6 6 7 6 7 7 6 6 5 5 5 5 3 5 4 5 4 5 5
17 15 14 11 10 5 8 8 10 11 10 9 10 10 10 9 9 8 9 8 8 7 7 11 12 11 9 7 8 9 11 11 11 10 11 12 10 10 10 9 8 7 9 9 7 5 6 8 8 5 6 5 4 3 4 2 5 5 4 4 4 4 5
15 14 14 17 12 5 5 12 7 8 10 9 8 9 10 8 6 6 6 4 7 7 8 8 6 9 9 7 8 10 10 9 9 12 12 11 10 11 11 10 9 7 8 8 8 9 7 7 8 4 5 5 4 5 5 8 7 5 4 4 5 4 3
10 12 11 12 9 6 2 10 8 7 11 9 9 8 7 10 7 7 6 6 8 7 9 7 3 7 9 8 6 7 7 9 11 11 11 11 10 11 11 10 9 8 9 9 8 8 8 5 4 3 3 7 5 4 4 5 5 5 6 4 5 5 5
11 10 10 9 9 8 5 4 5 4 8 8 8 7 7 7 7 7 7 8 8 9 6 6 4 6 10 8 8 6 6 6 8 10 10 10 11 11 11 10 10 10 9 8 8 7 5 3 4 5 6 5 6 5 5 4 4 5 5 6 5 6 5
7 6 7 10 9 9 6 5 6 6 6 8 7 7 6 6 5 5 6 5 5 5 5 6 5 5 5 7 8 7 7 9 6 8 9 8 8 9 8 10 10 10 9 7 5 4 6 7 6 4 4 4 5 7 5 5 6 5 5 5 4 3 4
5 7 8 7 9 9 7 5 6 6 6 8 7 7 7 5 5 5 5 5 4 4 4 3 3 3 4 4 4 6 10 8 6 6 5 4 4 4 7 8 9 6 5 5 6 7 8 9 9 9 8 8 7 4 5 5 6 5 4 4 5 5 5
2 2 5 5 5 6 6 5 1 5 7 7 8 9 9 8 8 6 5 5 4 4 4 4 3 3 4 3 0 5 5 4 2 4 3 4 2 3 4 5 5 3 7 7 7 8 10 10 10 8 8 6 6 6 7 8 9 7 6 5 5 5 5
4 3 5 8 6 2 4 3 2 6 5 5 7 9 9 9 7 6 7 6 5 4 4 4 4 4 4 4 6 5 2 3 6 2 4 7 7 2 2 4 4 5 5 6 9 9 7 8 6 7 6 6 8 7 7 7 7 7 11 9 4 4 5
7 3 5 6 6 5 4 5 5 7 5 7 7 7 9 8 8 7 8 7 6 5 5 4 4 3 3 4 3 3 2 5 6 3 1 3 4 6 6 5 5 5 4 3 3 5 4 4 5 6 6 9 8 6 6 7 4 7 12 9 9 6 4
8 6 6 6 5 6 7 9 8 9 8 5 2 6 9 6 2 5 6 6 4 4 4 4 4 4 3 2 1 3 2 4 6 3 1 2 3 3 5 5 5 6 8 8 8 5 4 6 5 3 6 5 6 6 5 3 10 19 10 11 12 10 6
8 7 7 6 6 3 2 4 6 7 6 9 9 5 0 3 3 3 4 5 5 3 2 3 3 2 3 3 1 2 3 3 5 3 2 1 1 4 4 4 5 6 4 4 5 11 14 11 8 4 3 3 1 1 3 7 6 9 9 9 13 16 9
9 10 10 9 8 8 8 8 7 3 6 8 6 5 8 9 7 6 5 6 6 6 4 6 7 7 6 4 3 3 3 3 2 3 4 0 1 1 2 3 3 4 4 3 3 1 2 9 8 12 12 9 6 7 7 5 5 7 7 7 7 5 5
12 11 10 9 9 7 7 7 7 3 5 7 8 7 6 5 5 5 7 7 9 9 8 7 7 6 5 4 4 5 5 3 1 2 2 5 3 3 3 3 2 2 1 3 2 3 4 3 1 3 1 5 6 6 5 3 8 10 10 10 9 7 4
8 11 12 10 8 7 8 9 9 9 9 5 5 4 5 5 7 9 7 7 8 9 8 7 6 6 5 5 5 5 4 5 7 7 3 4 6 6 6 4 2 0 2 2 0 2 2 1 2 3 2 2 2 1 4 5 11 10 10 10 9 9 4
12 13 12 11 10 11 9 9 9 8 7 8 9 9 8 7 7 8 8 8 8 8 8 7 6 6 6 6 6 6 6 6 6 4 4 5 3 1 3 2 2 1 2 1 2 4 6 5 0 3 4 4 2 2 5 6 9 10 11 10 11 5 2
14 12 10 9 8 8 9 9 9 9 10 10 10 10 9 10 10 9 9 9 9 9 8 8 7 6 6 6 6 6 6 6 6 6 6 5 5 3 3 3 2 2 2 2 2 3 3 2 1 3 3 3 2 2 6 5 8 11 11 9 9 6 3
13 14 15 14 10 12 12 9 8 9 8 8 10 10 11 11 9 9 9 8 9 8 8 8 7 6 5 5 5 5 6 5 5 6 5 5 6 6 5 5 4 3 2 2 2 3 2 2 3 5 4 3 3 10 8 6 7 11 10 10 9 6 3
14 14 14 13 12 14 12 11 14 15 15 14 12 10 9 12 13 12 8 9 10 10 9 8 6 6 6 5 5 5 5 5 5 5 5 5 5 5 4 3 2 3 1 1 1 1 3 4 4 5 4 4 4 6 7 7 6 8 12 12 12 9 3
13 12 12 11 11 12 12 11 12 14 14 12 12 14 13 12 12 12 11 12 12 11 10 8 8 8 6 3 6 7 6 5 5 6 5 6 5 5 4 3 3 3 2 3 3 4 5 6 6 5 5 7 8 6 6 6 6 8 13 13 14 14 9
12 12 13 13 9 9 10 14 15 16 16 15 13 11 11 11 11 11 11 10 9 8 7 6 6 6 6 7 7 7 7 6 4 4 6 4 5 5 4 4 3 2 4 5 5 6 6 6 5 5 6 5 6 6 6 8 11 6 10 11 11 12 11
11 11 11 12 15 16 14 12 14 15 15 14 13 12 12 12 11 9 8 9 9 7 6 6 6 5 5 5 5 4 5 4 6 5 5 5 4 5 6 4 5 6 6 5 6 6 7 7 5 6 6 5 4 4 4 4 6 8 8 11 12 12 10
11 11 10 11 12 12 13 12 12 12 13 11 11 11 10 10 9 9 8 8 6 7 6 7 6 4 4 4 4 4 4 4 4 4 4 5 4 4 3 4 5 4 4 3 3 4 5 5 5 6 6 6 5 5 4 3 4 5 9 8 8 6 10
10 10 10 10 10 11 11 10 10 9 9 7 10 8 7 8 8 9 8 7 6 6 6 6 6 6 5 4 4 2 3 3 2 3 4 3 4 4 3 5 4 5 2 3 3 4 3 2 3 3 4 6 5 5 6 5 4 3 3 5 6 5 7
8 9 9 9 8 8 8 7 7 8 8 10 11 7 5 8 9 10 7 4 4 6 6 5 4 3 3 4 4 6 6 1 2 2 1 1 2 4 5 7 5 5 3 3 3 3 4 3 2 2 2 4 6 6 6 7 5 5 3 3 4 3 5
8 8 9 8 8 8 8 8 7 7 7 7 6 7 9 11 9 8 7 10 8 7 5 6 6 2 2 1 5 2 4 9 4 4 4 2 1 3 4 5 3 6 7 8 9 5 2 2 4 5 6 7 5 6 7 7 7 7 6 7 5 4 2
9 8 7 7 7 7 6 6 6 7 7 6 5 5 5 5 5 6 7 8 9 9 7 5 8 8 6 4 2 2 3 2 6 8 3 6 7 8 9 9 9 8 8 8 7 7 8 7 6 7 7 6 7 6 7 7 6 6 6 6 6 6 6
7 6 5 5 5 5 4 4 5 6 6 6 6 5 5 5 4 4 5 5 7 8 8 7 8 8 10 10 7 5 5 3 2 7 6 7 8 8 7 7 7 7 6 6 4 5 5 6 6 7 7 7 7 5 5 5 5 4 4 4 5 4 4
5 6 4 4 2 4 4 3 3 3 4 4 4 6 6 5 3 3 4 3 2 3 5 6 8 6 6 6 8 9 8 7 7 6 8 6 7 6 6 9 10 8 4 4 4 7 7 7 6 4 4 6 7 6 5 4 3 2 3 3 4 4 4
8 6 5 5 7 7 6 6 4 4 3 3 3 3 3 4 5 4 4 3 2 1 1 2 2 4 3 5 5 4 5 6 5 5 5 5 5 4 5 5 6 12 13 10 6 6 7 8 6 8 10 6 5 6 10 9 5 3 2 1 0 3 5
8 8 8 7 6 7 7 6 4 3 3 2 1 2 3 4 4 4 5 3 2 2 2 3 3 2 4 3 2 2 3 3 3 3 3 4 4 4 4 2 5 2 6 8 7 7 7 7 7 6 8 10 8 4 3 5 4 2 3 4 4 5 6
Wind_Direction
200 196 189 192 185 184 178 178 179 171 174 175 182 167 174 158 158 158 165 170 169 171 167 175 177 174 178 178 176 181 180 177 183 182 177 184 172 177 178 184 186 198 188 182 204 211 164 167 189 175 216 164 171 166 183 186 180 191 171 183 148 134 199
202 197 190 191 183 185 178 177 182 172 174 173 176 164 177 161 150 165 161 168 171 172 171 179 176 178 179 176 181 178 183 181 184 181 184 181 189 159 188 187 183 180 179 190 179 194 191 162 189 199 169 177 178 178 182 186 189 200 138 160 156 122 169
198 217 226 189 181 188 173 174 183 179 173 174 178 176 179 152 156 157 156 168 171 174 177 177 180 181 179 180 175 182 188 187 187 188 191 188 197 188 191 171 187 185 193 159 191 201 196 185 166 197 167 195 180 178 187 187 179 176 153 200 202 180 190
181 198 230 203 182 184 175 170 181 181 176 179 180 181 177 155 161 150 160 170 173 176 180 177 182 181 181 182 179 182 193 191 194 194 196 194 192 199 186 180 203 176 193 184 186 208 158 186 186 185 187 194 190 178 190 192 189 190 171 187 194 191 193
190 205 227 240 187 179 180 174 180 179 175 182 177 181 178 168 167 162 167 174 178 179 181 181 183 181 182 182 185 186 191 193 193 199 201 202 190 202 189 200 187 210 169 206 212 134 173 202 198 173 185 203 187 187 201 195 197 187 177 188 206 176 195
179 200 217 226 214 171 185 179 177 174 172 182 170 173 173 173 174 174 173 174 179 179 183 183 186 178 184 185 191 185 187 194 197 198 203 186 181 204 212 203 198 200 175 204 184 179 165 214 197 190 186 196 211 193 199 195 205 186 192 186 209 194 207
183 188 203 209 240 184 175 175 176 171 167 176 162 168 170 172 184 173 174 175 185 177 184 185 189 181 186 184 193 185 185 194 192 202 203 208 185 194 213 208 199 201 210 198 180 194 181 201 196 181 204 205 196 213 173 194 214 187 180 188 187 192 201
181 182 177 177 218 244 178 178 174 179 169 177 164 173 165 163 182 175 179 173 183 178 189 183 189 179 180 189 189 189 188 195 191 201 200 208 203 206 202 209 190 184 209 220 200 198 194 194 206 193 208 211 198 218 168 186 197 226 189 185 197 211 203
182 174 173 181 187 189 210 177 174 172 170 175 169 167 159 167 183 181 175 171 176 183 199 190 188 171 170 192 179 194 189 196 189 196 203 204 209 205 210 205 207 186 199 212 193 227 184 203 213 191 193 214 174 204 142 201 220 221 217 177 189 219 228
177 177 176 183 190 164 191 171 163 168 179 175 157 162 157 163 184 154 177 182 171 193 192 206 177 147 163 179 187 194 194 197 196 196 199 207 209 210 211 206 206 199 209 216 192 200 219 194 212 194 187 200 194 191 178 183 206 215 221 187 199 213 215
166 166 157 163 155 183 197 164 170 173 171 162 152 161 156 151 163 164 175 189 187 192 195 203 191 154 159 177 193 186 200 193 204 202 201 206 210 213 212 214 207 201 208 208 222 209 206 192 185 185 172 207 206 192 206 192 199 209 226 217 208 204 217
165 161 156 144 152 157 181 133 113 131 151 149 145 148 147 151 158 159 182 190 188 185 191 191 193 188 181 175 186 191 202 201 200 210 205 209 213 214 213 214 217 209 198 213 214 215 208 159 227 203 192 204 213 204 200 210 207 208 226 231 219 213 218
148 141 150 156 155 160 163 154 138 128 130 137 129 127 125 134 147 153 168 173 173 183 191 191 199 188 209 186 183 191 203 208 207 213 215 212 223 219 214 212 218 220 209 190 217 219 233 193 196 229 211 195 219 223 204 202 213 212 206 224 248 237 214
116 149 154 155 158 159 159 151 136 129 128 124 125 120 114 116 130 145 155 153 152 158 161 162 204 180 184 168 200 210 209 209 205 220 235 219 218 241 244 233 220 215 167 194 204 215 220 225 206 203 209 195 209 227 229 210 220 218 220 220 221 234 228
319 62 102 98 94 101 106 107 32 148 145 129 141 145 140 146 151 146 149 139 157 160 164 152 156 166 146 120 219 248 200 249 319 321 312 292 213 219 260 260 252 223 182 189 206 219 225 222 214 197 204 200 201 214 222 224 219 221 211 215 217 249 266
199 136 124 101 71 52 120 129 93 12 347 161 158 165 161 160 160 159 159 154 156 163 163 157 170 167 168 166 171 219 286 91 82 330 6 357 337 299 221 261 293 259 241 211 207 211 221 228 208 204 193 199 210 207 217 235 242 221 210 193 201 211 239
149 179 126 112 140 195 184 140 150 169 213 240 175 182 160 164 165 168 159 165 164 169 163 175 172 181 193 183 199 196 132 92 112 183 154 7 354 354 355 354 334 316 306 293 270 250 233 226 243 225 206 205 207 209 221 239 253 270 181 173 186 205 203
135 148 137 129 142 202 191 156 183 194 193 214 183 45 28 348 259 174 157 153 155 157 169 181 182 200 201 198 204 221 193 101 87 335 90 70 317 345 352 353 351 349 349 333 308 297 267 242 232 235 240 237 229 212 232 22 0 336 267 182 186 194 203
139 145 132 126 132 194 224 70 55 45 38 51 52 63 328 327 42 26 46 62 54 59 126 184 203 215 228 234 239 29 34 56 131 233 236 133 15 339 348 350 336 323 313 325 10 347 327 323 302 260 276 260 291 309 48 95 2 324 334 268 198 191 208
118 100 80 70 62 60 44 79 114 85 64 83 86 54 42 46 34 49 55 67 56 69 63 76 64 54 49 38 30 38 26 26 45 203 257 29 304 217 256 268 263 249 274 327 51 317 303 60 3 350 329 340 341 45 50 61 1 10 20 36 5 312 237
57 67 88 87 79 73 86 79 76 86 120 130 124 103 81 79 81 14 29 50 68 63 62 66 77 71 58 47 55 54 49 37 211 176 215 268 230 217 266 252 229 234 37 32 339 349 45 51 149 195 302 19 29 123 134 62 12 30 31 21 14 6 343
70 77 79 90 95 75 52 49 61 52 41 43 82 109 109 88 78 73 60 50 56 69 67 63 65 70 66 65 56 65 59 52 53 62 105 220 248 255 256 259 212 92 123 223 219 49 335 316 274 288 305 64 80 140 95 59 24 28 29 19 10 1 339
80 75 71 71 77 93 109 112 96 102 106 86 84 70 55 72 85 88 85 82 71 69 71 73 70 62 55 58 64 62 62 67 72 62 52 39 50 156 274 297 291 175 121 299 120 182 236 231 269 2 357 13 54 105 82 47 25 30 24 15 8 353 325
64 66 80 95 105 93 91 86 89 90 87 95 100 100 100 93 98 103 94 82 82 79 79 76 73 67 65 65 61 61 60 65 67 62 69 83 86 72 46 27 17 45 35 71 75 152 263 306 84 48 22 16 2 84 88 71 38 34 27 18 4 342 310
74 71 57 41 68 79 68 60 76 86 91 95 96 99 87 73 78 96 102 98 87 83 81 82 85 79 81 80 80 75 72 80 96 84 65 62 64 65 58 33 26 40 75 104 138 153 154 92 85 71 51 38 46 85 83 76 45 34 36 31 14 349 308
78 64 54 61 59 50 42 52 55 52 45 42 45 50 67 71 60 50 50 74 82 76 68 63 72 103 110 100 90 88 85 71 72 73 86 90 95 87 66 70 38 20 331 128 94 120 136 115 121 125 145 157 125 82 80 75 54 34 34 31 26 12 356
74 87 101 91 71 59 67 64 63 62 59 49 42 46 44 46 51 53 55 53 49 45 43 44 39 18 21 30 83 89 75 66 69 93 79 80 65 62 90 133 150 195 203 161 125 85 80 82 79 74 61 59 55 72 77 79 73 47 36 29 22 19 27
83 71 57 48 60 95 87 66 55 53 50 44 48 55 57 47 48 52 48 52 58 59 45 41 43 42 31 34 39 40 43 43 30 75 84 90 125 125 103 97 112 115 94 73 80 85 85 82 86 82 73 47 52 56 50 52 61 60 44 34 25 14 12
70 63 59 62 59 50 52 57 61 61 50 44 41 40 44 51 55 52 49 45 33 44 55 49 44 38 47 41 38 52 45 25 39 37 66 66 48 77 96 75 73 89 101 103 101 104 108 109 105 100 96 91 83 65 63 68 69 59 61 37 19 359 354
90 80 72 65 64 68 70 73 68 65 66 63 48 36 43 47 46 42 44 43 31 30 35 32 25 35 47 51 63 36 31 28 37 54 46 54 92 78 69 94 100 90 99 133 119 107 128 146 149 144 140 131 129 129 123 111 97 90 101 96 72 4 321
111 103 88 77 73 67 61 58 57 67 71 77 95 83 52 46 45 42 39 22 20 35 34 53 34 12 28 7 10 28 84 45 38 8 43 60 25 21 49 91 75 68 62 85 72 96 100 149 184 185 142 140 141 152 150 140 129 121 122 132 140 187 261
121 118 114 108 99 92 91 85 78 70 59 38 25 41 77 89 69 32 7 31 48 33 15 26 60 36 349 22 25 11 341 210 99 36 21 353 54 74 11 14 47 73 57 22 97 73 22 37 88 143 154 156 160 158 142 148 145 135 157 201 199 216 246
141 137 130 126 123 124 122 125 122 116 99 76 57 45 27 20 43 55 13 7 21 44 20 6 349 5 345 57 71 20 5 347 328 204 198 129 190 148 157 137 100 49 34 24 4 8 81 86 26 29 33 34 52 75 73 60 45 40 28 19 1 359 327
149 143 144 145 147 132 132 137 138 122 112 110 106 92 73 61 33 24 29 19 13 6 1 8 355 359 355 36 65 131 124 135 316 317 42 58 51 31 36 42 49 53 43 26 13 7 3 7 38 30 25 38 54 68 74 65 49 33 13 3 2 344 340
159 147 141 157 148 144 139 155 136 130 125 122 114 104 92 82 71 48 47 25 12 0 1 4 355 3 3 8 14 28 313 150 82 21 12 86 61 60 41 29 47 62 68 53 42 32 18 9 29 19 10 48 42 49 65 63 52 36 7 343 344 336 334
140 137 118 93 136 141 135 111 89 97 107 112 123 123 125 126 112 73 72 69 38 6 10 6 343 356 23 18 7 6 359 18 35 37 5 30 88 95 70 45 48 30 64 93 70 52 44 55 59 19 6 50 54 44 64 61 59 36 339 328 329 309 295
163 158 140 119 94 82 70 61 70 81 80 99 104 111 137 139 139 139 112 114 106 2 31 241 254 311 27 45 33 353 359 7 19 23 30 23 24 39 116 125 42 35 35 56 74 71 72 70 73 50 36 41 85 66 83 106 127 155 180 161 349 340 339
190 177 168 164 152 135 131 125 109 111 87 63 107 147 151 122 125 139 133 120 110 85 48 1 351 4 54 52 85 5 1 43 20 16 28 32 7 30 353 103 131 67 42 44 45 51 64 61 50 55 62 50 50 88 110 114 108 69 30 9 359 349 335